N8FIS Weather Reports


time (UTC)temp
F
wind
direction
speed
knots
gust
knots
rain 1hr
in
rain 24hr
in
rain mn
in
humidity
%
barometer
mb
20260506051054 47 288 0.0 0.0 0.07 0.93 0.08 96 1007.9
20260506050545 47 288 0.0 0.0 0.07 0.93 0.08 96 1007.9
20260506050115 47 288 0.0 0.0 0.07 0.92 0.07 96 1007.9
20260506045117 47 288 0.0 0.0 0.08 0.92 0.07 96 1007.7
20260506044619 47 288 0.0 0.0 0.08 0.91 0.06 96 1007.8
20260506044045 47 288 0.0 0.0 0.07 0.90 0.05 96 1007.8
20260506043549 47 288 0.0 0.0 0.08 0.90 0.05 96 1007.8
20260506043045 47 288 0.0 0.0 0.07 0.89 0.04 96 1007.8
20260506042105 47 288 0.0 0.0 0.06 0.87 0.02 96 1007.8
20260506041550 47 288 0.0 0.0 0.06 0.87 0.02 96 1007.9
20260506041044 47 288 0.0 0.0 0.06 0.86 0.01 96 1007.8
20260506040548 47 288 0.0 0.0 0.07 0.86 0.01 96 1007.7
20260506040117 47 288 0.0 0.0 0.07 0.85 0.85 96 1007.8
20260506035557 47 288 0.0 0.0 0.08 0.85 0.85 96 1007.8
20260506035042 47 288 0.0 0.0 0.08 0.84 0.84 95 1007.7
20260506034605 48 288 0.0 0.0 0.08 0.83 0.83 96 1007.9
20260506034050 48 288 0.0 0.0 0.09 0.83 0.83 95 1007.8
20260506033555 48 288 0.0 0.0 0.08 0.82 0.82 95 1007.8
20260506033059 48 288 0.0 0.0 0.09 0.82 0.82 95 1007.8
20260506032544 48 288 0.0 0.0 0.10 0.82 0.82 95 1007.7
20260506032113 48 288 0.0 0.0 0.09 0.81 0.81 95 1007.6
20260506031558 48 288 0.0 0.0 0.10 0.81 0.81 95 1007.8
20260506031043 48 288 0.0 0.0 0.10 0.80 0.80 95 1008.0
20260506030547 48 288 0.0 0.0 0.10 0.79 0.79 95 1008.1
20260506030053 48 288 0.0 0.0 0.10 0.78 0.78 95 1008.2
20260506025557 48 288 0.0 0.0 0.11 0.77 0.77 95 1008.3
20260506025101 48 288 0.0 0.0 0.11 0.76 0.76 95 1008.3
20260506024546 48 288 0.0 0.0 0.11 0.75 0.75 95 1008.3
20260506024046 48 288 0.0 0.0 0.11 0.74 0.74 95 1008.3
20260506023610 48 288 0.0 0.0 0.12 0.74 0.74 95 1008.3
20260506023054 48 288 0.0 0.0 0.11 0.73 0.73 95 1008.3
20260506022559 48 288 0.0 0.0 0.12 0.73 0.73 95 1008.1
20260506022045 48 288 0.0 0.0 0.12 0.72 0.72 95 1008.2
20260506021614 48 288 0.0 0.0 0.11 0.71 0.71 95 1008.2
20260506021059 48 288 0.0 0.0 0.11 0.70 0.70 95 1008.1
20260506020547 48 288 0.0 0.0 0.11 0.69 0.69 95 1008.1
20260506020119 48 288 0.0 0.0 0.10 0.68 0.68 95 1008.1
20260506015603 48 288 0.0 0.0 0.09 0.66 0.66 95 1008.1
20260506015117 48 288 0.0 0.0 0.08 0.65 0.65 95 1008.0
20260506014601 48 288 0.0 0.0 0.08 0.64 0.64 95 1007.9
20260506014046 48 288 0.0 0.0 0.07 0.63 0.63 95 1007.8
20260506013550 48 288 0.0 0.0 0.06 0.62 0.62 95 1007.7
20260506013054 48 288 0.0 0.0 0.06 0.62 0.62 95 1007.7
20260506012559 48 288 0.0 0.0 0.05 0.61 0.61 95 1007.8
20260506012043 48 288 0.0 0.0 0.05 0.60 0.60 95 1007.7
20260506011550 48 288 0.0 0.0 0.05 0.60 0.60 94 1007.6
20260506011055 48 288 0.0 0.0 0.04 0.59 0.59 94 1007.5
20260506010541 48 288 0.0 0.0 0.04 0.58 0.58 94 1007.4
20260506010048 48 288 0.0 0.0 0.04 0.58 0.58 94 1007.2
20260506005554 48 288 0.0 0.0 0.04 0.57 0.57 94 1007.2
20260506005059 48 288 0.0 0.0 0.04 0.57 0.57 94 1007.3
20260506004543 48 288 0.0 0.0 0.03 0.56 0.56 94 1007.3
20260506004050 48 288 0.0 0.0 0.04 0.56 0.56 94 1007.3
20260506003557 48 288 0.0 0.0 0.04 0.56 0.56 94 1007.4
20260506003042 48 288 0.0 0.0 0.04 0.56 0.56 94 1007.4
20260506002547 48 288 0.0 0.0 0.04 0.56 0.56 94 1007.4
20260506002052 48 288 0.0 0.0 0.03 0.55 0.55 94 1007.3
20260506001559 49 288 0.0 0.0 0.04 0.55 0.55 94 1007.4
20260506001045 49 288 0.0 0.0 0.04 0.55 0.55 94 1007.4
20260506000547 49 288 0.0 0.0 0.04 0.54 0.54 94 1007.5
20260506000119 49 288 0.0 0.0 0.04 0.54 0.54 94 1007.5
20260505235543 49 288 0.0 0.0 0.03 0.53 0.53 94 1007.4
20260505235050 49 288 0.0 0.0 0.03 0.53 0.53 94 1007.4
20260505234555 49 288 0.0 1.7 0.03 0.53 0.53 94 1007.3
20260505234100 49 288 0.0 1.7 0.03 0.53 0.53 94 1007.2
20260505233544 50 288 0.0 0.9 0.03 0.52 0.52 94 1007.1
20260505233050 50 288 0.0 1.7 0.03 0.52 0.52 94 1007.2
20260505232556 50 288 0.0 1.7 0.03 0.52 0.52 94 1007.1
20260505232103 50 288 0.0 1.7 0.04 0.52 0.52 94 1007.1
20260505231547 50 288 0.0 2.6 0.03 0.51 0.51 94 1007.1
20260505231053 49 288 0.0 2.6 0.04 0.51 0.51 94 1007.0
20260505230543 49 288 0.0 1.7 0.04 0.50 0.50 94 1007.1
20260505230048 50 288 0.0 3.5 0.05 0.50 0.50 94 1007.0
20260505225552 50 288 0.9 3.5 0.06 0.50 0.50 94 1007.1
20260505225058 50 288 0.0 1.7 0.09 0.50 0.50 94 1007.1
20260505224545 50 288 0.9 1.7 0.10 0.50 0.50 94 1007.1
20260505224051 50 288 0.0 1.7 0.11 0.50 0.50 94 1007.0
20260505223622 50 288 0.0 0.0 0.12 0.50 0.50 94 1006.8
20260505223108 51 288 0.0 0.0 0.13 0.49 0.49 94 1006.9
20260505222552 51 288 0.0 0.0 0.15 0.49 0.49 94 1007.2
20260505222058 51 288 0.0 0.0 0.15 0.48 0.48 94 1007.2
20260505221546 51 288 0.0 0.0 0.17 0.48 0.48 94 1007.2
20260505221053 50 288 0.0 0.9 0.18 0.47 0.47 94 1007.2
20260505220559 51 288 0.0 0.9 0.19 0.46 0.46 94 1007.3
20260505220111 51 288 0.0 1.7 0.18 0.45 0.45 94 1007.2
20260505215556 51 288 0.0 1.7 0.18 0.44 0.44 93 1007.1
20260505215043 51 288 0.0 1.7 0.16 0.41 0.41 94 1007.2
20260505214547 51 288 0.0 1.7 0.15 0.40 0.40 93 1007.0
20260505214049 51 288 0.0 3.5 0.15 0.39 0.39 93 1006.9
20260505213556 51 288 0.9 3.5 0.15 0.38 0.38 93 1006.8
20260505213042 51 330 0.0 1.7 0.13 0.36 0.36 93 1006.7
20260505212546 51 330 0.9 1.7 0.13 0.35 0.35 93 1006.7
20260505212056 52 330 0.0 0.0 0.12 0.33 0.33 93 1006.7
20260505211544 51 330 0.0 0.9 0.10 0.31 0.31 93 1006.8
20260505211049 51 330 0.0 1.7 0.08 0.29 0.29 93 1006.8
20260505210556 51 330 0.0 1.7 0.08 0.28 0.28 92 1006.7
20260505210043 52 330 0.0 0.9 0.07 0.27 0.27 92 1006.6
20260505205549 52 330 0.0 0.9 0.06 0.26 0.26 92 1006.5
20260505205120 52 330 0.0 1.7 0.06 0.25 0.25 92 1006.6
20260505204544 52 330 0.0 3.5 0.06 0.25 0.25 92 1006.6
20260505204052 51 330 0.9 3.5 0.05 0.24 0.24 92 1006.6
20260505203557 51 330 0.9 2.6 0.05 0.23 0.23 92 1006.5
20260505203044 52 330 0.9 4.3 0.05 0.23 0.23 92 1006.5
20260505202550 52 330 2.6 4.3 0.05 0.22 0.22 92 1006.5
20260505202055 52 330 0.0 2.6 0.06 0.21 0.21 92 1006.8
20260505201556 52 330 0.0 1.7 0.07 0.21 0.21 92 1006.8
20260505201109 52 330 0.0 2.6 0.08 0.21 0.21 92 1006.7
20260505200555 52 330 0.0 3.5 0.08 0.20 0.20 92 1006.8
20260505200042 52 330 0.9 3.5 0.09 0.20 0.20 92 1006.9
20260505195547 52 330 0.0 2.6 0.09 0.20 0.20 92 1007.2
20260505195053 53 330 0.0 0.9 0.09 0.19 0.19 92 1007.3
20260505194558 53 330 0.0 2.6 0.09 0.19 0.19 92 1007.2
20260505194045 53 330 0.9 3.5 0.11 0.19 0.19 92 1007.2
20260505193552 53 330 0.9 3.5 0.11 0.18 0.18 92 1007.3
20260505193100 54 329 0.0 1.7 0.11 0.18 0.18 92 1007.3
20260505192546 54 330 0.0 1.7 0.10 0.17 0.17 92 1007.3
20260505192117 54 330 0.0 1.7 0.10 0.16 0.16 92 1007.3
20260505191542 55 330 0.9 1.7 0.08 0.14 0.14 92 1007.2
20260505191048 55 330 0.9 1.7 0.08 0.13 0.13 92 1007.0
20260505190554 55 330 0.0 0.9 0.07 0.12 0.12 91 1006.8
20260505190041 55 330 0.0 1.7 0.07 0.11 0.11 92 1006.7
20260505185541 56 330 0.9 1.7 0.08 0.11 0.11 91 1006.7
20260505185046 56 330 0.0 0.9 0.08 0.10 0.10 91 1006.7
20260505184553 56 330 0.0 1.7 0.09 0.10 0.10 91 1006.7
20260505184059 56 330 0.0 3.5 0.07 0.08 0.08 91 1006.8
20260505183547 56 330 0.0 3.5 0.07 0.07 0.07 90 1006.7
20260505183054 56 330 0.0 2.6 0.07 0.07 0.07 90 1006.6
20260505182559 56 330 0.0 4.3 0.07 0.07 0.07 90 1006.6
20260505182044 56 329 1.7 4.3 0.06 0.06 0.06 90 1006.5
20260505181612 56 329 0.9 2.6 0.06 0.06 0.06 89 1006.3
20260505181102 57 329 0.0 2.6 0.05 0.05 0.05 88 1006.3
20260505180545 57 329 0.0 2.6 0.05 0.05 0.05 87 1006.5
20260505180049 57 330 0.0 0.9 0.04 0.04 0.04 86 1006.4
20260505175555 58 330 0.9 1.7 0.03 0.03 0.03 85 1006.3
20260505175058 58 329 0.0 1.7 0.02 0.02 0.02 85 1006.5
20260505174542 59 330 0.0 0.9 0.02 0.02 0.02 84 1006.2
20260505174048 59 330 0.0 1.7 0.01 0.01 0.01 84 1006.4
20260505173551 60 330 0.9 1.7 0.00 0.00 0.00 82 1006.3
20260505173100 60 330 0.0 2.6 0.00 0.00 0.00 81 1006.3
20260505172544 60 330 0.0 2.6 0.00 0.00 0.00 80 1006.3
20260505172046 60 330 0.0 3.5 0.00 0.00 0.00 79 1006.3
20260505171617 60 330 0.9 3.5 0.00 0.00 0.00 79 1006.3
20260505171100 60 330 0.9 3.5 0.00 0.00 0.00 80 1006.3
20260505170545 60 330 0.9 3.5 0.00 0.00 0.00 80 1006.4
20260505170051 60 330 0.9 2.6 0.00 0.00 0.00 79 1006.5
20260505165557 61 330 0.9 5.2 0.00 0.00 0.00 79 1006.5
20260505165103 61 330 1.7 5.2 0.00 0.00 0.00 78 1006.5
20260505164549 61 240 0.9 3.5 0.00 0.00 0.00 78 1006.5
20260505164117 61 240 0.9 5.2 0.00 0.00 0.00 78 1006.5
20260505163600 61 242 0.9 10.4 0.00 0.00 0.00 78 1006.4
20260505163111 61 242 2.6 10.4 0.00 0.00 0.00 77 1006.4
20260505162618 61 232 1.7 4.3 0.00 0.00 0.00 77 1006.3
20260505162104 61 232 0.9 4.3 0.00 0.00 0.00 77 1006.3
20260505161548 61 224 0.9 1.7 0.00 0.00 0.00 77 1006.5
20260505161058 61 224 0.9 4.3 0.00 0.00 0.00 77 1006.4
20260505160543 61 224 1.7 13.9 0.00 0.00 0.00 76 1006.4
20260505160108 61 224 1.7 13.9 0.00 0.00 0.00 76 1006.3
20260505153100 62 61 1.7 6.1 0.00 0.00 0.00 76 1006.4
20260505152545 62 348 1.7 6.1 0.00 0.00 0.00 76 1006.4
20260505152051 62 179 1.7 6.1 0.00 0.00 0.00 76 1006.3
20260505151556 62 82 0.9 7.8 0.00 0.00 0.00 76 1006.2
20260505151059 62 312 2.6 7.8 0.00 0.00 0.00 75 1006.0
20260505150544 63 310 1.7 4.3 0.00 0.00 0.00 75 1006.0
20260505140551 64 305 2.6 9.6 0.00 0.00 0.00 72 1004.2
20260505124600 61 215 1.7 5.2 0.00 0.00 0.00 75 1004.2
20260505124045 61 283 1.7 5.2 0.00 0.00 0.00 76 1004.3
20260505123554 60 183 0.9 5.2 0.00 0.00 0.00 76 1004.3
20260505123041 61 154 0.9 7.8 0.00 0.00 0.00 76 1004.3
20260505122611 61 205 1.7 7.8 0.00 0.00 0.00 76 1004.0
20260505122055 60 337 0.9 7.0 0.00 0.00 0.00 76 1004.1
20260505121559 60 194 3.5 4.3 0.00 0.00 0.00 75 1004.2
20260505121046 60 290 0.9 5.2 0.00 0.00 0.00 75 1004.3
20260505120611 60 269 1.7 5.2 0.00 0.00 0.00 75 1004.2
20260505120055 60 229 0.9 4.3 0.00 0.00 0.00 76 1004.0
20260505115559 60 264 0.9 3.5 0.00 0.00 0.00 76 1003.9
20260505115054 60 70 0.9 3.5 0.00 0.00 0.00 76 1003.8
20260505114600 60 274 0.0 7.8 0.00 0.00 0.00 76 1003.8
20260505114100 60 237 2.6 7.8 0.00 0.00 0.00 76 1003.4
20260505113544 59 270 1.7 4.3 0.00 0.00 0.00 77 1003.3
20260505113049 60 243 0.9 6.1 0.00 0.00 0.00 77 1003.1
20260505112553 59 232 0.9 6.1 0.00 0.00 0.00 77 1003.0
20260505112058 60 240 1.7 5.2 0.00 0.00 0.00 77 1002.9
20260505111543 59 182 0.9 5.2 0.00 0.00 0.00 77 1002.7
20260505111049 59 5 0.0 3.5 0.00 0.00 0.00 78 1002.8
20260505110555 59 207 0.0 4.3 0.00 0.00 0.00 78 1002.7
20260505102043 60 263 0.9 6.1 0.00 0.00 0.00 76 1002.0
20260505101547 60 232 3.5 6.1 0.00 0.00 0.00 76 1002.2
20260505101117 60 209 1.7 6.1 0.00 0.00 0.00 76 1002.2
20260505100540 60 182 1.7 10.4 0.00 0.00 0.00 75 1002.1
20260505100046 60 250 2.6 10.4 0.00 0.00 0.00 75 1002.2
20260505095552 60 178 1.7 7.8 0.00 0.00 0.00 76 1002.2
20260505095052 60 218 1.7 10.4 0.00 0.00 0.00 76 1002.2
20260505094617 60 325 3.5 10.4 0.00 0.00 0.00 76 1002.2
20260505094040 60 304 2.6 9.6 0.00 0.00 0.00 76 1002.2
20260505093545 60 169 1.7 9.6 0.00 0.00 0.00 76 1002.2
20260505093050 61 288 2.6 8.7 0.00 0.00 0.00 75 1002.1
20260505092546 61 184 1.7 8.7 0.00 0.00 0.00 74 1002.2
20260505092050 61 347 1.7 4.3 0.00 0.00 0.00 74 1002.1
20260505091620 61 226 0.9 6.1 0.00 0.00 0.00 74 1001.8
20260505091044 62 281 1.7 6.1 0.00 0.00 0.00 73 1001.7
20260505090548 62 208 1.7 5.2 0.00 0.00 0.00 73 1001.6
20260505090054 62 211 1.7 6.1 0.00 0.00 0.00 72 1001.7
20260505085546 62 242 1.7 9.6 0.00 0.00 0.00 72 1001.7
20260505085052 63 338 1.7 9.6 0.00 0.00 0.00 71 1001.6
20260505084540 63 199 1.7 15.6 0.00 0.00 0.00 70 1001.6
20260505084046 63 304 2.6 15.6 0.00 0.00 0.00 70 1001.6
20260505083552 64 186 3.5 13.0 0.00 0.00 0.00 69 1001.6
20260505083055 64 205 2.6 10.4 0.00 0.00 0.00 69 1001.6
20260505082542 64 290 2.6 10.4 0.00 0.00 0.00 69 1001.4
20260505082047 64 292 1.7 10.4 0.00 0.00 0.00 69 1001.4
20260505081553 64 297 1.7 7.0 0.00 0.00 0.00 69 1001.4
20260505081058 64 228 0.9 7.0 0.00 0.00 0.00 70 1001.2
20260505080543 63 213 0.9 7.8 0.00 0.00 0.00 71 1001.1
20260505080047 63 235 3.5 7.8 0.00 0.00 0.00 71 1001.1
20260505075552 63 234 2.6 6.1 0.00 0.00 0.00 72 1001.2
20260505075058 63 236 1.7 5.2 0.00 0.00 0.00 72 1001.1
20260505074545 63 244 0.9 5.2 0.00 0.00 0.00 72 1000.9
20260505074057 63 202 0.9 7.0 0.00 0.00 0.00 71 1000.8
20260505073544 63 245 1.7 7.0 0.00 0.00 0.00 71 1000.8
20260505073051 63 207 0.9 2.6 0.00 0.00 0.00 71 1000.8
20260505072558 64 207 1.7 6.1 0.00 0.00 0.00 70 1000.9
20260505072045 64 207 1.7 8.7 0.00 0.00 0.00 70 1001.0
20260505071554 64 207 1.7 8.7 0.00 0.00 0.00 70 1001.0
20260505071039 64 219 0.9 4.3 0.00 0.00 0.00 70 1000.9
20260505070557 65 219 0.9 4.3 0.00 0.00 0.00 69 1001.1
20260505070104 65 219 0.9 2.6 0.00 0.00 0.00 69 1001.1
20260505065543 65 219 0.0 1.7 0.00 0.00 0.00 69 1001.2
20260505065048 65 219 0.0 0.0 0.00 0.00 0.00 69 1001.3
20260505064546 65 219 0.0 0.0 0.00 0.00 0.00 68 1001.4
20260505064055 66 219 0.0 1.7 0.00 0.00 0.00 68 1001.3
20260505063541 66 219 0.0 1.7 0.00 0.00 0.00 67 1001.4
20260505063050 66 219 0.0 3.5 0.00 0.00 0.00 66 1001.4
20260505062556 66 219 0.9 3.5 0.00 0.00 0.00 66 1001.4
20260505062102 67 219 0.9 3.5 0.00 0.00 0.00 65 1001.5
20260505061547 67 227 0.9 3.5 0.00 0.00 0.00 65 1001.5
20260505061054 67 227 0.9 3.5 0.00 0.00 0.00 65 1001.7
20260505060559 67 227 0.9 6.1 0.00 0.00 0.00 65 1001.7
20260505060040 67 271 0.9 6.1 0.00 0.00 0.00 64 1001.5
20260505055542 67 215 0.9 3.5 0.00 0.00 0.00 65 1001.6